User: anonymous   Login
Location: Catstown
(52.4386°N, 7.2633°W)
Time: 21:58:04
(UTC+00:00)
Language:

Cosmos 1833 Rocket - Orbit

View from above orbital plane
View from above orbital plane
View from above satellite
View from above satellite

Ground track
Ground track

The orbit data is extracted from the following two-line orbital elements,

1 17590U 87027B   21134.67614373 -.00000124  00000-0 -37759-4 0  9998
2 17590  71.0047  23.8700 0007244 280.9058  79.1251 14.16795865766075
Epoch (UTC): 14 May 2021 16:13:38
Eccentricity: 0.0007244
inclination: 71.0047°
perigee height: 831 km
apogee height: 841 km
right ascension of ascending node: 23.8700°
argument of perigee: 280.9058°
revolutions per day: 14.16795865
mean anomaly at epoch: 79.1251°
orbit number at epoch: 76607

The dashed part of the orbit path shows where the satellite is in the earth's shadow,  

DLR